Flag for Russia Weather past 2 weeks in Khanty-Mansiysk, Russia

Now
16 °F

Light snow. Low clouds.


Feels Like: 10 °F
Forecast: 12 / 19 °F
Wind: 3 mph from North

Location: Hanty-Mansijsk

Current Time: Oct 20, 2014 at 7:35:46 PM

Latest Report: Oct 20, 2014 at 7:00 PM


Visibility: 2 mi

Pressure: 29.45 "Hg

Humidity: 86%

Dew point: 12 °F

Location of Khanty-MansiyskLocation

Historic Weather in Khanty-Mansiysk — Graph

°F

Khanty-Mansiysk temperature yesterday

Maximum temperature yesterday: 21 °F (at 11:30 AM)
Minimum temperature yesterday: 18 °F (at 12:00 AM)
Average temperature yesterday: 19 °F

Past Weeks' High & Low Weather Summary

 TemperatureHumidityPressure
High43 °F (Oct 5, 6:00 PM)100% (Oct 10, 7:00 PM)30.30 "Hg (Oct 10, 7:00 PM)
Low12 °F (Oct 18, 5:00 AM)54% (Oct 16, 3:30 PM)29.47 "Hg (Oct 20, 12:00 PM)
Average26 °F81%29.93 "Hg
* Reported Oct 5 6:00 PM — Oct 20 6:30 PM, Khanty-Mansiysk, Weather by CustomWeather, © 2014

Note: Actual official high and low records may vary slightly from our data, if they occured in-between our weather recording intervals... More about our weather records

Advertising

Khanty-Mansiysk weather history for previous 24 hours

 ConditionsComfort  
Time TempWeatherWind HumidityBarometerVisibility
6:30 PM
Oct 20
16 °FLight snow. Low clouds.3 mph86%29.47 "Hg2 mi
6:00 PM16 °FLight snow. Overcast.6 mph86%29.47 "Hg2 mi
5:30 PM16 °FLight snow. Overcast.6 mph86%29.47 "Hg2 mi
5:00 PM16 °FLight snow. Low clouds.6 mph86%29.47 "Hg1 mi
4:30 PM16 °FLight snow. Low clouds.6 mph93%29.47 "Hg1 mi
4:00 PM18 °FLight snow. Low clouds.6 mph86%29.47 "Hg1 mi
3:30 PM18 °FLight snow. Low clouds.8 mph86%29.47 "Hg1 mi
3:00 PM18 °FLight snow. Low clouds.8 mph86%29.47 "Hg2 mi
1:30 PM18 °FLight snow. Overcast.10 mph86%29.47 "Hg2 mi
1:00 PM16 °FLight snow. Low clouds.8 mph93%29.47 "Hg2 mi
12:30 PM16 °FLight snow. Low clouds.10 mph93%29.47 "Hg2 mi
12:00 PM16 °FLight snow. Low clouds.10 mph86%29.47 "Hg1 mi
11:00 AM16 °FSnow. Ice fog.8 mph86%29.50 "Hg1 mi
9:00 AM16 °FSnow. Mostly cloudy.10 mph86%29.50 "Hg1 mi
8:30 AM16 °FLight snow. Mostly cloudy.8 mph93%29.53 "Hg2 mi
8:00 AM16 °FLight snow. Mostly cloudy.13 mph93%29.53 "Hg1 mi
7:30 AM18 °FLight snow. Mostly cloudy.15 mph86%29.53 "Hg1 mi
7:00 AM18 °FLight snow. Mostly cloudy.13 mph86%29.53 "Hg1 mi
6:30 AM18 °FSnow. Mostly cloudy.13 mph86%29.53 "Hg1 mi
6:00 AM18 °FLight snow. Mostly cloudy.10 mph86%29.56 "Hg1 mi
5:30 AM18 °FLight snow. Mostly cloudy.10 mph86%29.56 "Hg2 mi
5:00 AM18 °FLight snow. Mostly cloudy.10 mph86%29.56 "Hg3 mi
4:30 AM18 °FLight snow. Mostly cloudy.10 mph86%29.56 "Hg2 mi
4:00 AM18 °FLight snow. Mostly cloudy.10 mph86%29.59 "Hg2 mi
3:30 AM18 °FLight snow. Mostly cloudy.10 mph86%29.59 "Hg2 mi
3:00 AM18 °FLight snow. Mostly cloudy.10 mph86%29.59 "Hg4 mi
2:30 AM18 °FLight snow. Mostly cloudy.10 mph86%29.62 "Hg1 mi
2:00 AM18 °FLight snow. Mostly cloudy.10 mph93%29.62 "Hg1 mi
1:30 AM18 °FSnow. Mostly cloudy.13 mph93%29.62 "Hg1 mi
1:00 AM18 °FSnow. Mostly cloudy.13 mph93%29.65 "Hg1 mi
12:30 AM19 °FSnow. Mostly cloudy.13 mph86%29.65 "Hg1 mi
12:00 AM19 °FSnow. Mostly cloudy.13 mph86%29.65 "Hg1 mi
11:30 PM
Oct 19
19 °FLight snow. Mostly cloudy.15 mph86%29.68 "Hg2 mi
11:00 PM19 °FSnow. Mostly cloudy.15 mph86%29.68 "Hg1 mi
10:30 PM19 °FHeavy snow. Ice fog.13 mph86%29.71 "Hg1 mi
10:00 PM19 °FHeavy snow. Ice fog.15 mph86%29.71 "Hg1 mi
9:30 PM19 °FHeavy snow. Ice fog.15 mph86%29.74 "Hg1 mi
9:00 PM19 °FHeavy snow. Ice fog.15 mph86%29.74 "Hg1 mi
8:30 PM19 °FHeavy snow. Ice fog.15 mph86%29.77 "Hg1 mi
8:00 PM19 °FHeavy snow. Ice fog.17 mph86%29.80 "Hg0 mi
7:30 PM19 °FHeavy snow. Ice fog.15 mph93%29.80 "Hg1 mi
7:00 PM19 °FHeavy snow. Ice fog.15 mph93%29.83 "Hg1 mi
Weather by CustomWeather, © 2014

See weather overviewHow to use our weather pages